Simultaneous Nadir Overpasses (SNOs) Predictions

Prediction of SNOs between GOES-15 and METOP-C Satellite Orbit:

Table of predicted SNOs for the next 14.0 days since TLE Epoch: 6/6/2025
Index Date Time (GOES-15) GOES-15 Lat,Lon METOP-C Lat,Lon Distance(km) Time Diff (sec)
1 06/07/2025 05:09:59 -0.22, 61.38 -0.95, 64.74 382.48 80
2 06/08/2025 17:31:40 0.19, 61.39 -0.11, 60.15 140.98 80
3 06/09/2025 17:08:21 0.21, 61.38 1.03, 65.14 428.49 80
4 06/11/2025 05:29:53 -0.19, 61.35 -0.03, 60.58 87.99 80
5 06/12/2025 05:06:35 -0.21, 61.35 -1.18, 65.57 480.65 80
6 06/13/2025 17:28:15 0.19, 61.37 0.11, 60.98 44.27 80
7 06/16/2025 05:23:48 -0.19, 61.35 -0.21, 61.41 7.52 80
8 06/18/2025 17:22:10 0.18, 61.38 0.30, 61.81 50.28 80
9 06/20/2025 05:43:40 -0.15, 61.36 0.80, 57.27 466.39 80
